Location: Kirtland Hills
(41.6239°N, 81.3071°W)
Time: 23:31:00
(UTC+00:00)

NOSS 3-3 (A) - Pass Details

Date: 29 October 2020
Orbit: 826 x 1387 km, 63.4° (Epoch: 22 November)

Event Time Altitude Azimuth Distance (km) Brightness Sun altitude
Rises 23:23:36 0° 205° (SSW) 3,378 7.3 -11.9°
Reaches altitude 10° 23:25:57 10° 203° (SSW) 2,478 6.6 -12.3°
Maximum altitude 23:31:37 69° 121° (ESE) 973 3.8 -13.3°
Drops below altitude 10° 23:37:58 10° 39° (NE) 2,778 6.0 -14.5°
Enters shadow 23:38:34 - 39° (NE) 3,001 6.1 -14.6°
